Погода в Тырнове

Россия / Рязанская область     54°16′47″N   39°35′02″E
темп.,
°C
ветер,
м/с
пор.,
м/с
влажн.,
%
обл.,
%
осадки,
мм/ч
давл.,
гПа
погр.,
м
10 апреля, сб
сб1000:00+2юз12653 0.0 102710
03:00+2ю11670 0.0 102810
06:00+1юв22700 0.0 102811
09:00+6ююв23541 0.0 1028375
12:00+8ю23451 0.0 10271378
15:00+9юз22414 0.0 10261552
18:00+9з11490 0.0 102621
21:00+5юз11530 0.0 102710
11 апреля, вс
вс1100:00+4юз22570 0.0 102711
03:00+2з22640 0.0 102812
06:00+2з22680 0.0 102910
09:00+7зсз11530 0.0 1030231
12:00+11с1242100 0.0 1030911
15:00+12ссв2340100 0.0 10301017
18:00+11св2352100 0.0 103178
21:00+7в3664100 0.0 1032102
12 апреля, пн
пн1200:00+6всв3870100 0.0 1032162
03:00+4св41172100 0.0 1032239
06:00+5всв51265100 0.0 1031338
09:00+7в61084100 0.0 1030376
12:00+11в6876100 0.0 1029578
15:00+14в5765100 0.0 1027672
18:00+13в4975100 0.0 1026282
21:00+11в51182100 0.0 1026173
13 апреля, вт
вт1300:00+9юв4117966 0.0 1026169
03:00+8юв4127912 0.0 1026187
06:00+7юв41081100 0.0 1026166
09:00+13ююв595640 0.0 1025325
12:00+17ююв694497 0.0 1024743
15:00+18ююв6836100 0.0 10241449
18:00+16юв4851100 0.0 1023191
21:00+13юв485944 0.0 1023117
14 апреля, ср
ср1400:00+11юв4126650 0.0 1022234
03:00+9юв377574 0.0 1022109
06:00+8юв4117788 0.0 1022190
09:00+13ююв61055100 0.0 1021377
12:00+17ююв6103793 0.0 1020890
15:00+19ю7936100 0.0 10191552
18:00+16ю3454100 0.0 101862
21:00+12юв3457100 0.0 101951